Location: Ajisawe
(8.4333°N, 4.3833°E)
Time: 10:44:37
(UTC+00:00)

Vanguard 2 Rocket - Pass Details

Date: 28 April 2021
Orbit: 553 x 3326 km, 32.9° (Epoch: 07 May)

Event Time Altitude Azimuth Distance (km) Brightness Sun altitude
Rises 13:14:43 0° 299° (WNW) 6,135 11.5 66.1°
Reaches altitude 10° 13:19:19 10° 310° (NW) 5,482 11.4 65.0°
Maximum altitude 13:34:20 31° 7° (N) 4,642 11.0 61.4°
Drops below altitude 10° 13:51:07 10° 63° (ENE) 6,124 11.0 57.3°
Sets 13:56:38 0° 73° (ENE) 6,919 11.1 56.0°
